TimeCST,TemperatureF,Dew PointF,Humidity,Sea Level PressureIn,VisibilityMPH,Wind Direction,Wind SpeedMPH,Gust SpeedMPH,PrecipitationIn,Events,Conditions,WindDirDegrees,DateUTC
12:01 AM,53.6,51.8,94,30.05,0.8,North,4.6,-,N/A,,Mist,350,2012-12-06 06:01:00
12:08 AM,53.6,51.8,94,30.06,2.0,NNW,5.8,-,N/A,,Mostly Cloudy,340,2012-12-06 06:08:00
12:16 AM,53.6,51.8,94,30.05,3.0,North,4.6,-,N/A,,Mostly Cloudy,360,2012-12-06 06:16:00
12:22 AM,53.6,51.8,94,30.05,1.5,North,5.8,-,N/A,,Mostly Cloudy,10,2012-12-06 06:22:00
12:30 AM,53.6,51.8,94,30.04,0.5,NNE,5.8,-,N/A,Fog,Fog,30,2012-12-06 06:30:00
12:53 AM,52.0,51.1,97,30.04,0.2,North,4.6,-,N/A,Fog,Fog,360,2012-12-06 06:53:00
1:53 AM,52.0,50.0,93,30.03,0.2,NNE,6.9,-,N/A,Fog,Fog,30,2012-12-06 07:53:00
2:16 AM,53.6,51.8,94,30.02,0.2,NNE,5.8,-,N/A,Fog,Fog,30,2012-12-06 08:16:00
2:53 AM,53.1,51.1,93,30.01,0.2,NE,4.6,-,N/A,Fog,Fog,40,2012-12-06 08:53:00
3:53 AM,53.1,52.0,96,30.00,0.2,NE,4.6,-,N/A,Fog,Fog,50,2012-12-06 09:53:00
4:53 AM,54.0,53.1,97,29.98,0.2,NE,3.5,-,N/A,Fog,Fog,50,2012-12-06 10:53:00
5:53 AM,55.9,54.0,93,29.97,0.2,ENE,5.8,-,N/A,Fog,Fog,60,2012-12-06 11:53:00
6:53 AM,55.0,54.0,96,29.99,0.2,NNE,3.5,-,N/A,Fog,Fog,30,2012-12-06 12:53:00
7:53 AM,55.9,55.0,97,30.00,0.2,NNE,4.6,-,N/A,Fog,Fog,20,2012-12-06 13:53:00
8:53 AM,59.0,57.0,93,30.01,0.2,North,3.5,-,N/A,Fog,Fog,10,2012-12-06 14:53:00
9:53 AM,62.1,61.0,96,30.02,0.2,North,3.5,-,N/A,Fog,Fog,360,2012-12-06 15:53:00
10:29 AM,64.4,62.6,94,30.01,2.0,NE,4.6,-,N/A,,Overcast,40,2012-12-06 16:29:00
10:37 AM,64.4,62.6,94,30.01,4.0,North,3.5,-,N/A,,Overcast,350,2012-12-06 16:37:00
10:53 AM,64.9,63.0,93,30.00,8.0,NE,3.5,-,N/A,,Overcast,40,2012-12-06 16:53:00
11:02 AM,66.2,62.6,88,30.00,10.0,Calm,Calm,-,N/A,,Overcast,0,2012-12-06 17:02:00
11:44 AM,71.6,62.6,73,29.97,10.0,NNW,4.6,-,N/A,,Scattered Clouds,340,2012-12-06 17:44:00
11:53 AM,70.0,63.0,78,29.97,10.0,NW,4.6,-,N/A,,Partly Cloudy,320,2012-12-06 17:53:00
12:53 PM,73.0,60.1,64,29.93,10.0,Variable,5.8,-,N/A,,Partly Cloudy,0,2012-12-06 18:53:00
1:53 PM,73.0,60.1,64,29.91,10.0,SSW,8.1,-,N/A,,Clear,200,2012-12-06 19:53:00
2:53 PM,73.0,62.1,68,29.90,10.0,SSW,8.1,-,N/A,,Clear,200,2012-12-06 20:53:00
3:53 PM,72.0,62.1,71,29.89,10.0,SSW,6.9,-,N/A,,Clear,200,2012-12-06 21:53:00
4:53 PM,71.1,60.1,68,29.88,10.0,SSE,8.1,-,N/A,,Clear,150,2012-12-06 22:53:00
5:53 PM,66.0,60.1,81,29.89,10.0,SE,8.1,-,N/A,,Clear,130,2012-12-06 23:53:00
6:53 PM,64.9,61.0,87,29.89,10.0,ESE,6.9,-,N/A,,Clear,110,2012-12-07 00:53:00
7:53 PM,64.0,60.1,87,29.89,10.0,ESE,6.9,-,N/A,,Clear,120,2012-12-07 01:53:00
8:53 PM,64.0,61.0,90,29.89,9.0,ESE,4.6,-,N/A,,Clear,110,2012-12-07 02:53:00
9:53 PM,62.1,60.1,93,29.90,6.0,ESE,5.8,-,N/A,,Scattered Clouds,110,2012-12-07 03:53:00
10:14 PM,62.6,60.8,94,29.89,6.0,ESE,5.8,-,N/A,,Mostly Cloudy,110,2012-12-07 04:14:00
10:53 PM,63.0,60.1,90,29.89,7.0,East,5.8,-,N/A,,Mostly Cloudy,90,2012-12-07 04:53:00
11:12 PM,62.6,60.8,94,29.90,8.0,East,5.8,-,N/A,,Partly Cloudy,100,2012-12-07 05:12:00
11:35 PM,62.6,60.8,94,29.90,7.0,East,4.6,-,N/A,,Mostly Cloudy,100,2012-12-07 05:35:00